Location: Zaragoza
(41.6330°N, 0.8830°W)
Time: 00:46:27
(UTC+02:00)

ISS - Pass Details

Date: 15 October 2018
Orbit: 402 x 408 km, 51.6° (Epoch: 22 October)

Event Time Altitude Azimuth Distance (km) Brightness Sun altitude
Rises 19:47:03 0° 292° (WNW) 2,335 1.2 -5.3°
Reaches altitude 10° 19:49:33 10° 274° (W) 1,470 0.7 -5.8°
Maximum altitude 19:51:55 19° 227° (SW) 1,056 -0.9 -6.3°
Drops below altitude 10° 19:54:17 10° 181° (S) 1,462 -0.9 -6.7°
Sets 19:56:46 0° 162° (SSE) 2,316 -0.1 -7.2°
